When you browse on this site, cookies collect data to enhance your experience and personalize the content and advertising you see.
Visit our Privacy Policy to learn more. By continuing to use the site, you agree to this use of cookies and data.
EN

Hourly Weather Bansi

Today, 14 August, Friday

Time Temperature Precipitation Wind Pressure Humidity
00:00 +28°C° 0 mm 3 mps 742 mmHg 88%
01:00 +28°C° 1.8 mm 3 mps 742 mmHg 89%
02:00 +28°C° 1.8 mm 3 mps 741 mmHg 91%
03:00 +28°C° 1.8 mm 3 mps 741 mmHg 92%
04:00 +28°C° 0.4 mm 3 mps 741 mmHg 92%
05:00 +28°C° 0.4 mm 3 mps 741 mmHg 91%
06:00 +28°C° 0.4 mm 3 mps 741 mmHg 91%
07:00 +29°C° 0 mm 3 mps 741 mmHg 87%
08:00 +30°C° 0 mm 3 mps 741 mmHg 83%
09:00 +33°C° 0 mm 3 mps 741 mmHg 79%
10:00 +34°C° 0.3 mm 3 mps 741 mmHg 75%
11:00 +35°C° 0.3 mm 3 mps 741 mmHg 70%
12:00 +36°C° 0.3 mm 3 mps 740 mmHg 66%
13:00 +36°C° 0 mm 3 mps 740 mmHg 65%
14:00 +37°C° 0 mm 3 mps 739 mmHg 63%
15:00 +37°C° 0 mm 3 mps 739 mmHg 61%
16:00 +37°C° 0.1 mm 3 mps 739 mmHg 65%
17:00 +36°C° 0.1 mm 2 mps 739 mmHg 69%
18:00 +35°C° 0.1 mm 2 mps 738 mmHg 73%
19:00 +34°C° 0.1 mm 2 mps 739 mmHg 74%
20:00 +32°C° 0.1 mm 2 mps 739 mmHg 76%
21:00 +32°C° 0.1 mm 2 mps 739 mmHg 77%
22:00 +31°C° 0.9 mm 2 mps 740 mmHg 80%
23:00 +31°C° 0.9 mm 2 mps 740 mmHg 82%

Tomorrow, 15 August, Saturday

Time Temperature Precipitation Wind Pressure Humidity
00:00 +30°C° 0.9 mm 2 mps 740 mmHg 84%
01:00 +30°C° 1 mm 2 mps 739 mmHg 85%
02:00 +30°C° 1 mm 2 mps 739 mmHg 86%
03:00 +30°C° 1 mm 2 mps 739 mmHg 87%
04:00 +30°C° 0.7 mm 2 mps 739 mmHg 87%
05:00 +30°C° 0.7 mm 2 mps 739 mmHg 87%
06:00 +29°C° 0.7 mm 2 mps 739 mmHg 87%
07:00 +30°C° 1.3 mm 3 mps 739 mmHg 85%
08:00 +31°C° 1.3 mm 3 mps 740 mmHg 83%
09:00 +33°C° 1.3 mm 4 mps 740 mmHg 81%
10:00 +33°C° 1.3 mm 4 mps 740 mmHg 78%
11:00 +34°C° 1.3 mm 4 mps 740 mmHg 75%
12:00 +35°C° 1.3 mm 5 mps 740 mmHg 72%
13:00 +35°C° 1.1 mm 5 mps 740 mmHg 73%
14:00 +35°C° 1.1 mm 5 mps 740 mmHg 73%
15:00 +35°C° 1.1 mm 5 mps 740 mmHg 74%
16:00 +34°C° 1.7 mm 5 mps 740 mmHg 78%
17:00 +33°C° 1.7 mm 4 mps 739 mmHg 81%
18:00 +32°C° 1.7 mm 4 mps 739 mmHg 84%
19:00 +32°C° 0.6 mm 4 mps 740 mmHg 85%
20:00 +30°C° 0.6 mm 4 mps 740 mmHg 87%
21:00 +30°C° 0.6 mm 4 mps 741 mmHg 88%
22:00 +29°C° 1 mm 4 mps 741 mmHg 89%
23:00 +29°C° 1 mm 3 mps 741 mmHg 90%

Day after tomorrow, 16 August, Sunday

Time Temperature Precipitation Wind Pressure Humidity
00:00 +29°C° 1 mm 3 mps 741 mmHg 90%
01:00 +29°C° 1.1 mm 4 mps 741 mmHg 90%
02:00 +29°C° 1.1 mm 4 mps 741 mmHg 90%
03:00 +28°C° 1.1 mm 4 mps 741 mmHg 90%
04:00 +28°C° 1 mm 4 mps 741 mmHg 91%
05:00 +28°C° 1 mm 4 mps 741 mmHg 92%
06:00 +27°C° 1 mm 4 mps 741 mmHg 93%
07:00 +28°C° 0.3 mm 4 mps 741 mmHg 91%
08:00 +28°C° 0.3 mm 4 mps 742 mmHg 90%
09:00 +29°C° 0.3 mm 3 mps 742 mmHg 88%
10:00 +30°C° 0.1 mm 4 mps 742 mmHg 83%
11:00 +33°C° 0.1 mm 4 mps 742 mmHg 78%
12:00 +34°C° 0.1 mm 5 mps 741 mmHg 73%
13:00 +35°C° 0.1 mm 4 mps 741 mmHg 71%
14:00 +35°C° 0.1 mm 4 mps 740 mmHg 69%
15:00 +36°C° 0.1 mm 4 mps 739 mmHg 68%
16:00 +35°C° 0.1 mm 3 mps 739 mmHg 70%
17:00 +35°C° 0.1 mm 2 mps 739 mmHg 72%
18:00 +35°C° 0.1 mm 2 mps 738 mmHg 74%
19:00 +34°C° 0 mm 2 mps 739 mmHg 76%
20:00 +32°C° 0 mm 2 mps 740 mmHg 78%
21:00 +31°C° 0 mm 3 mps 740 mmHg 80%
22:00 +31°C° 0.1 mm 3 mps 741 mmHg 81%
23:00 +30°C° 0.1 mm 3 mps 741 mmHg 83%

17 August, Monday

Time Temperature Precipitation Wind Pressure Humidity
00:00 +30°C° 0.1 mm 3 mps 741 mmHg 84%
01:00 +30°C° 0.1 mm 4 mps 741 mmHg 85%
02:00 +29°C° 0.1 mm 4 mps 740 mmHg 86%
03:00 +29°C° 0.1 mm 4 mps 740 mmHg 86%
04:00 +29°C° 0 mm 4 mps 740 mmHg 86%
05:00 +29°C° 0 mm 4 mps 740 mmHg 86%
06:00 +29°C° 0 mm 4 mps 740 mmHg 86%
07:00 +30°C° 0 mm 5 mps 740 mmHg 84%
08:00 +32°C° 0 mm 6 mps 741 mmHg 81%
09:00 +33°C° 0 mm 6 mps 741 mmHg 78%
10:00 +34°C° 0 mm 6 mps 741 mmHg 75%
11:00 +34°C° 0 mm 6 mps 741 mmHg 72%
12:00 +35°C° 0 mm 6 mps 740 mmHg 69%
13:00 +36°C° 0 mm 6 mps 740 mmHg 68%
14:00 +36°C° 0 mm 6 mps 739 mmHg 66%
15:00 +38°C° 0 mm 6 mps 738 mmHg 64%
16:00 +36°C° 0.1 mm 5 mps 738 mmHg 68%
17:00 +36°C° 0.1 mm 4 mps 738 mmHg 72%
18:00 +35°C° 0.1 mm 3 mps 738 mmHg 75%
19:00 +34°C° 0.1 mm 3 mps 739 mmHg 77%
20:00 +34°C° 0.1 mm 3 mps 739 mmHg 79%
21:00 +33°C° 0.1 mm 3 mps 740 mmHg 81%
22:00 +32°C° 3.8 mm 4 mps 741 mmHg 83%
23:00 +32°C° 3.8 mm 4 mps 741 mmHg 84%

18 August, Tuesday

Time Temperature Precipitation Wind Pressure Humidity
00:00 +30°C° 3.8 mm 5 mps 741 mmHg 86%
01:00 +30°C° 3.1 mm 5 mps 741 mmHg 88%
02:00 +29°C° 3.1 mm 4 mps 741 mmHg 90%
03:00 +29°C° 3.1 mm 4 mps 740 mmHg 91%
04:00 +29°C° 0 mm 4 mps 740 mmHg 91%
05:00 +29°C° 0 mm 4 mps 740 mmHg 92%
06:00 +28°C° 0 mm 4 mps 740 mmHg 92%
07:00 +29°C° 0 mm 5 mps 740 mmHg 88%
08:00 +30°C° 0 mm 5 mps 741 mmHg 84%
09:00 +33°C° 0 mm 6 mps 741 mmHg 81%
10:00 +34°C° 0 mm 6 mps 741 mmHg 77%
11:00 +35°C° 0 mm 6 mps 741 mmHg 74%
12:00 +36°C° 0 mm 6 mps 741 mmHg 70%
13:00 +36°C° 0 mm 5 mps 740 mmHg 69%
14:00 +36°C° 0 mm 5 mps 740 mmHg 67%
15:00 +37°C° 0 mm 5 mps 739 mmHg 66%
16:00 +36°C° 0.9 mm 4 mps 739 mmHg 69%
17:00 +35°C° 0.9 mm 4 mps 739 mmHg 73%
18:00 +35°C° 0.9 mm 3 mps 739 mmHg 77%
19:00 +34°C° 0.6 mm 3 mps 740 mmHg 80%
20:00 +31°C° 0.6 mm 3 mps 740 mmHg 83%
21:00 +30°C° 0.6 mm 3 mps 741 mmHg 86%
22:00 +30°C° 0.2 mm 3 mps 741 mmHg 87%
23:00 +30°C° 0.2 mm 4 mps 741 mmHg 87%

19 August, Wednesday

Time Temperature Precipitation Wind Pressure Humidity
00:00 +30°C° 0.2 mm 4 mps 742 mmHg 88%
01:00 +30°C° 3.1 mm 5 mps 741 mmHg 88%
02:00 +29°C° 3.1 mm 5 mps 741 mmHg 88%
03:00 +29°C° 3.1 mm 6 mps 740 mmHg 87%
04:00 +29°C° 0 mm 6 mps 740 mmHg 88%
05:00 +29°C° 0 mm 6 mps 740 mmHg 88%
06:00 +28°C° 0 mm 6 mps 740 mmHg 89%
07:00 +29°C° 0 mm 6 mps 740 mmHg 87%
08:00 +30°C° 0 mm 6 mps 741 mmHg 84%
09:00 +32°C° 0 mm 6 mps 741 mmHg 82%
10:00 +33°C° 0.1 mm 6 mps 741 mmHg 78%
11:00 +34°C° 0.1 mm 6 mps 740 mmHg 74%
12:00 +35°C° 0.1 mm 6 mps 740 mmHg 71%
13:00 +35°C° 0.4 mm 5 mps 740 mmHg 70%
14:00 +35°C° 0.4 mm 5 mps 739 mmHg 69%
15:00 +36°C° 0.4 mm 5 mps 739 mmHg 69%
16:00 +35°C° 0.6 mm 4 mps 739 mmHg 72%
17:00 +34°C° 0.6 mm 4 mps 739 mmHg 75%
18:00 +34°C° 0.6 mm 3 mps 739 mmHg 78%
19:00 +33°C° 0 mm 3 mps 739 mmHg 81%
20:00 +31°C° 0 mm 3 mps 740 mmHg 83%
21:00 +30°C° 0 mm 3 mps 740 mmHg 86%
22:00 +30°C° 0.6 mm 3 mps 740 mmHg 86%
23:00 +30°C° 0.6 mm 3 mps 740 mmHg 86%
Show more